User: anonymous   Login
Location: Newark
(33.6333°S, 78.8500°W)
Time: 11:58:10
(UTC+00:00)
Language:

Courier 1B - Orbit

View from above orbital plane
View from above orbital plane
View from above satellite
View from above satellite

Ground track
Ground track

The orbit data is extracted from the following two-line orbital elements,

1    58U 60013A   19264.51993185  .00000084  00000-0  16622-7 0  9992
2    58  28.3294  24.0689 0165037 354.4578   5.4147 13.46319131902745
Epoch (UTC): 21 September 2019 12:28:42
Eccentricity: 0.0165037
inclination: 28.3294°
perigee height: 962 km
apogee height: 1209 km
right ascension of ascending node: 24.0689°
argument of perigee: 354.4578°
revolutions per day: 13.46319131
mean anomaly at epoch: 5.4147°
orbit number at epoch: 90274

The dashed part of the orbit path shows where the satellite is in the earth's shadow,  

DLR